STARLINK-11289, 60991

Orbit data source: Space-Track

STARLINK-11289, 60991 is a payload satellite owned by SpaceX/Seattle (US) in LEO that was launched on Thu, 05 Sep 2024 UTC via an FALCON 9 launch vehicle from the Air Force Eastern Test Range (AFETR). Payloads include a variety of satellites, spacecraft, and rockets equipped with specific instruments for various scientific and technological missions. These include communications satellites like Starlink; space stations such as the ISS; scientific satellites like the Hubble; Earth observation satellites from companies like Planet Labs, Umbra, and HawkEye 360; GPS; miniature CubeSats for education and research; and military/defense satellites.

Loading next visibility...
STARLINK-11289 details
Identifier
60991, 2024-158B
Orbit
LEO
Last TLE update16 hours ago
Origin
Flag of USSpaceX/Seattle (US)
ManufacturerSpaceX/Seattle
MissionOperational spacecraft
Bus & MotorSTARLINK V2M, Unknown motor
Mass730 kg wet, ~700 kg dry
Launch date (UTC)
2024-09-05 (4 months ago)
Launch vehicle
FALCON 9
Launch site
Air Force Eastern Test Range (AFETR)
Object type
Payload
Rocket body
Debris
Shape & HBRUnknown
Radar Cross SectionLarge (>1 m²)

Expand to show TLE details & history

TLE from 16 hours ago
0 STARLINK-11289
1 60991U 24158B   24355.88985953  .00002739  00000-0  27477-4 0  9991
2 60991  53.1583 308.8311 0002197 113.0118 247.1131 15.69707325 17899
Epoch: 2024-12-20T21:21Z
Definitive object data (Epoch: 2024-12-20T21:21:23.863Z)
Latitude-0.00008°
Longitude-101.46728°
Altitude361.225 km
Speed7.693 km/s
True Right ascension20h 35m 19s
True Declination0° 00' 00"
Sunlit
Object was in daylight at TLE epoch
Visualization TLE readout
Latitude18.77058°
Longitude60.5899°
Altitude358.994 km
Speed7.697 km/s
Apparent Right ascension04h 31m 15s
Apparent Declination-15° 31' 21"
Sunlit
Object is in full shadow
Visualization observer readout
Local Sidereal Time12:19:57
Azimuth275.141° WNW
Elevation-30.614°
Doppler factor1
Orbital elements
Apogee altitude361.476 km
Perigee altitude358.515 km
Semi-major axis6,738.132 km
Eccentricity0.0002197
Inclination53.1583°
RAAN308.8311°
Arg. of periapsis113.0118°
True anomaly247.08991°
Mean anomaly247.1131°
Eccentric anomaly247.1015°
Mean motion3.92404 °/min
BSTAR0.000027477
Orbital period91.74 mins
Loading maneuver chart data...
Loading historical data...
Loading historical data...
Loading historical data...
Loading historical data...
Loading historical data...
Loading historical data...
Loading historical data...

STARLINK-11289 Visibility forecast

Observer location: undefined°, undefined

Span
Click to sort rows by Start time (UTC) header in descending order
Start Az.
Max El. time (UTC)
Max El. Az.
Max El.
End time (UTC)
End Az.
5 mins2024-12-21 23:31:00.834Z216.967° SW2024-12-21 23:33:00.834Z152.4° SSE41.858°2024-12-21 23:36:00.834Z55.498° ENE
4 mins2024-12-22 05:56:00.834Z332.406° NNW2024-12-22 05:58:00.834Z48.268° ENE32.145°2024-12-22 06:00:00.834Z102.76° ESE
|